Location: Garshuizen
(53.3675°N, 6.7248°E)
Time: 20:02:01
(UTC+00:00)

Cosmos 2237 Rocket - Pass Details

Date: 15 May 2026
Orbit: 833 x 849 km, 71.0° (Epoch: 6 June)

Event Time Altitude Azimuth Distance (km) Brightness Sun altitude
Rises 20:50:44 0° 325° (NW) 3,424 7.7 -9.9°
Reaches altitude 10° 20:53:46 10° 340° (NNW) 2,484 6.0 -10.2°
Maximum altitude 20:58:11 22° 31° (NNE) 1,762 4.1 -10.6°
Drops below altitude 10° 21:02:33 10° 82° (E) 2,470 4.4 -11.0°
Enters shadow 21:05:18 - 96° (E) 3,312 4.9 -11.2°
